Location: ??
(35.5052°N, 139.7262°E)
Time: 17:58:19
(UTC+00:00)

Cosmos 2026 Rocket - Pass Details

Date: 20 June 2021
Orbit: 939 x 1001 km, 82.9° (Epoch: 30 July)

Event Time Altitude Azimuth Distance (km) Brightness Sun altitude
Exits shadow 16:12:23 54° 141° (SE) 1,182 4.2 -27.4°
Maximum altitude 16:13:35 64° 92° (E) 1,080 4.2 -27.3°
Drops below altitude 10° 16:19:50 10° 13° (NNE) 2,762 7.3 -26.7°
Sets 16:22:24 0° 11° (N) 3,720 8.2 -26.5°
